Regional Weather Roundup
Issued by NWS Raleigh/Durham, NC

Home | Current Version | Previous Version | Text Only | Print | Product List | Glossary On
Versions: 1 2 3 4 5 6 7 8 9 10 11 12 13 14 15 16 17 18 19 20 21 22 23 24 25 26 27 28 29 30 31 32 33 34 35 36 37 38 39 40 41 42 43 44 45 46 47 48 49 50
000
ASUS42 KRAH 260210
RWRRAH
NORTH CAROLINA WEATHER ROUNDUP
NATIONAL WEATHER SERVICE RALEIGH NC
1000 PM EDT THU MAY 25 2017

NOTE: "FAIR" INDICATES FEW OR NO CLOUDS BELOW 12,000 FEET WITH NO
SIGNIFICANT WEATHER AND/OR OBSTRUCTIONS TO VISIBILITY.

NCZ001-053-055-056-065-067-260300-
WESTERN NORTH CAROLINA

CITY           SKY/WX    TMP DP  RH WIND       PRES   REMARKS
ASHEVILLE      CLEAR     61  45  55 W10G17    29.82R
JEFFERSON      DRIZZLE   53  49  87 W12G29    29.75R
HICKORY        CLOUDY    64  50  60 W8        29.75R
RUTHERFORDTON  CLEAR     61  52  72 SE10      29.78R
MOUNT AIRY     PTCLDY    62  52  71 W6        29.72R
BOONE          NOT AVBL
$$

NCZ021-022-025-041-071-084-088-260300-
CENTRAL NORTH CAROLINA

CITY           SKY/WX    TMP DP  RH WIND       PRES   REMARKS
CHARLOTTE      MOCLDY    66  50  56 SW12G21   29.76R
GREENSBORO     PTCLDY    62  51  67 W12       29.69R
WINSTON-SALEM  CLEAR     63  48  58 W9G17     29.71R
RALEIGH-DURHAM PTCLDY    63  58  83 SW10      29.69R
FORT BRAGG     CLEAR     70  51  51 SW12G20   29.71R
FAYETTEVILLE   CLEAR     71  52  50 SW12      29.72R
BURLINGTON     CLEAR     65  50  58 SW12      29.68R
LAURINBURG     CLEAR     68  53  58 W12       29.75R
$$

NCZ011-015-027-028-043-044-047-080-103-260300-
NORTHEASTERN NORTH CAROLINA

CITY           SKY/WX    TMP DP  RH WIND       PRES   REMARKS
ROCKY MT-WILSO MOCLDY    64  58  80 SW6       29.67R
GREENVILLE     PTCLDY    66  55  68 SW5       29.71R
WASHINGTON     MOCLDY    65  59  80 SW6       29.68R
ELIZABETH CITY CLEAR     63  58  83 SW12      29.63R
MANTEO         CLEAR     67  59  76 W15       29.66R
CAPE HATTERAS  CLEAR     71  56  58 W21G30    29.69R
$$

NCZ078-087-090-091-093-098-101-260300-
SOUTHEASTERN NORTH CAROLINA

CITY           SKY/WX    TMP DP  RH WIND       PRES   REMARKS
LUMBERTON      CLEAR     67  54  63 SW7       29.75R
GOLDSBORO      MOCLDY    67  61  81 SW7       29.69R
KINSTON        PTCLDY    66  55  68 CALM      29.71R
KENANSVILLE    CLEAR     66  55  68 SW3       29.72R
NEW BERN       CLEAR     65  57  75 SW10      29.72R
CHERRY POINT   CLEAR     67  55  65 SW14      29.73R
BEAUFORT       CLEAR     72  59  63 SW18G26   29.73R
JACKSONVILLE   CLEAR     66  58  75 SW7       29.73R
WILMINGTON     CLEAR     67  55  65 SW12      29.76R
$$




USA.gov is the U.S. government's official web portal to all federal, state and local government web resources and services.